Вернуться в каталог

DMSP 5D-2 F13 DEB

АктивенPO
NORAD 40489·DEBRIS·🇺🇸 United States

Запущен Mar 24, 1995 с Vandenberg Space Force Base

Loading…

Ближайшие Пролёты (ближайшие 24 часа)

TLE

СвежийSource: Space-Track

Эпоха: Sep 13, 2026, 04:45 UTC

1 40489U 95015CC  26256.19827816  .00010030  00000-0  22294-2 0  9993
2 40489  98.7211 242.3224 0033276  42.9174 317.4611 14.56863303594114

Отслеживайте DMSP 5D-2 F13 DEB в реальном времени с AllMySat

Download on the App Store